Tracking 18673 objects as of 25-June-2017
HD Live streaming from Space Station
objects crossing your sky now

AZUR (GRS A)

Track AZUR (GRS A) now!
10-day predictions
AZUR (GRS A) is classified as:


NORAD ID: 4221
Int'l Code: 1969-097A
Perigee: 363.8 km
Apogee: 1,283.4 km
Inclination: 102.7 °
Period: 101.2 minutes
Semi major axis: 7194 km
RCS: 0.3339 m2 (medium)
Launch date: November 8, 1969
Source: Germany (GER)
Launch site: AIR FORCE WESTERN TEST RANGE (AFWTR)
Your satellite tracking list
Your tracking list is empty





NASA's NSSDC Master Catalog

Two Line Element Set (TLE):
1  4221U 69097A   17176.22301504 +.00003031 +00000-0 +14804-3 0  9996
2  4221 102.6937 044.7513 0639106 108.2460 258.9305 14.22638351250328
Source of the keplerian elements: AFSPC